1496444400.44,18714,21.31,74100.5,0.39,-32.97,-33.49,0,*4E
1496444401.69,18715,21.31,74106.0,0.39,-32.75,-33.43,0,*49
1496444402.93,18716,21.31,74104.0,0.39,-32.79,-33.73,0,*45
1496444404.18,18717,21.31,74106.5,0.39,-32.63,-33.31,0,*49
1496444405.42,18718,21.31,74106.8,0.39,-33.27,-33.89,0,*44
1496444406.66,18719,21.31,74104.3,0.39,-33.27,-33.73,0,*40
1496444407.9,18720,21.31,74104.3,0.39,-33.31,-33.89,0,*48
1496444409.14,18721,21.31,74110.0,0.39,-33.27,-34.01,0,*49
1496444410.35,18722,21.31,74108.8,0.39,-33.43,-34.07,0,*4E
1496444411.59,18723,21.31,74106.8,0.39,-33.49,-34.19,0,*4A
1496444412.81,18724,21.31,74106.3,0.39,-33.43,-34.07,0,*48
1496444414.05,18725,21.31,74104.5,0.39,-33.27,-34.01,0,*4D
1496444415.29,18726,21.31,74106.0,0.39,-32.79,-33.49,0,*4F
1496444416.5,18727,21.31,74108.8,0.41,-33.03,-33.83,0,*4B
1496444417.71,18728,21.31,74104.3,0.41,-33.21,-33.95,0,*43
1496444418.92,18729,21.31,74108.5,0.41,-33.21,-33.83,0,*45
1496444420.13,18730,21.31,74106.0,0.39,-33.43,-34.25,0,*4D
1496444421.36,18731,21.31,74106.8,0.39,-33.43,-34.19,0,*43
1496444422.58,18732,21.31,74104.3,0.37,-33.21,-34.13,0,*40
1496444423.8,18733,21.31,74104.0,0.37,-33.37,-34.13,0,*46
1496444425.01,18734,21.31,74108.3,0.39,-33.31,-34.07,0,*4C
1496444426.23,18735,21.31,74106.8,0.39,-33.31,-34.07,0,*4D
1496444427.46,18736,21.31,74106.5,0.41,-33.09,-33.83,0,*41
1496444428.67,18737,21.31,74106.0,0.41,-33.21,-33.95,0,*4D
1496444429.91,18738,21.31,74110.8,0.39,-33.27,-34.19,0,*48
1496444431.15,18739,21.31,74106.0,0.39,-33.27,-34.01,0,*40
1496444432.39,18740,21.31,74108.8,0.39,-32.97,-33.73,0,*46
1496444433.63,18741,21.31,74106.0,0.39,-33.31,-34.01,0,*48
1496444434.87,18742,21.31,74106.5,0.39,-33.27,-33.89,0,*4B
1496444436.09,18743,21.31,74106.5,0.39,-33.09,-33.83,0,*4C
1496444437.32,18744,21.31,74108.3,0.41,-33.09,-33.95,0,*43
1496444438.59,18745,21.31,74106.3,0.41,-33.27,-34.01,0,*44
1496444439.8,18746,21.31,74106.3,0.41,-33.37,-34.13,0,*45
1496444441.04,18747,21.31,74106.5,0.39,-33.49,-34.35,0,*46
1496444442.3,18748,21.31,74104.8,0.37,-33.61,-34.35,0,*4D
1496444443.48,18749,21.31,74100.0,0.39,-33.55,-34.41,0,*46
1496444444.69,18750,21.31,74106.0,0.37,-33.55,-34.47,0,*46
1496444445.91,18751,21.31,74110.0,0.39,-33.49,-34.25,0,*40
1496444447.16,18752,21.31,74104.3,0.37,-33.61,-34.35,0,*46
1496444448.37,18753,21.31,74108.5,0.39,-33.55,-34.35,0,*4E
1496444449.58,18754,21.31,74106.8,0.39,-33.49,-34.25,0,*45
1496444450.82,18755,21.31,74110.0,0.37,-33.73,-34.41,0,*41
1496444452.03,18756,21.31,74104.5,0.39,-33.49,-34.41,0,*45
1496444453.27,18757,21.31,74110.8,0.39,-33.49,-34.35,0,*47
1496444454.51,18758,21.31,74106.8,0.39,-33.49,-34.35,0,*48
1496444455.74,18759,21.31,74108.3,0.37,-33.61,-34.41,0,*4E
1496444456.98,18760,21.31,74110.3,0.37,-33.89,-34.77,0,*47
1496444458.21,18761,21.31,74108.3,0.37,-33.89,-34.59,0,*4A
1496444459.48,18762,21.31,74106.0,0.37,-33.89,-34.65,0,*46
1496444460.75,18763,21.31,74110.0,0.37,-33.77,-34.65,0,*46
1496444461.99,18764,21.31,74110.8,0.37,-33.89,-34.77,0,*43
1496444463.23,18765,21.31,74110.8,0.37,-33.89,-34.77,0,*42
1496444464.46,18766,21.31,74108.5,0.37,-33.89,-34.59,0,*4D
1496444465.69,18767,21.31,74110.0,0.35,-33.95,-34.65,0,*4C
1496444466.93,18768,21.31,74108.5,0.33,-33.95,-34.65,0,*45
1496444468.13,18769,21.31,74108.0,0.35,-33.95,-34.77,0,*41
1496444469.37,18770,21.31,74110.0,0.35,-33.89,-34.65,0,*47
1496444470.64,18771,21.31,74108.0,0.33,-33.77,-34.53,0,*44
1496444471.88,18772,21.31,74110.5,0.33,-33.77,-34.47,0,*42
1496444473.13,18773,21.31,74106.3,0.33,-33.77,-34.47,0,*43
1496444474.37,18774,21.31,74108.8,0.33,-33.77,-34.47,0,*44
1496444475.61,18775,21.31,74106.8,0.33,-33.77,-34.47,0,*45
1496444476.85,18776,21.31,74108.5,0.33,-33.67,-34.31,0,*46
1496444478.07,18777,21.31,74110.3,0.35,-33.49,-34.13,0,*4D
1496444479.33,18778,21.31,74106.0,0.33,-33.61,-34.31,0,*4E
1496444480.56,18779,21.31,74108.5,0.33,-33.67,-34.35,0,*4D
1496444481.78,18780,21.31,74110.0,0.33,-33.67,-34.47,0,*4E
1496444483.0,18781,21.31,74108.0,0.35,-33.77,-34.47,0,*48
1496444484.27,18782,21.31,74104.5,0.33,-33.77,-34.53,0,*48
1496444485.51,18783,21.31,74104.5,0.33,-33.83,-34.53,0,*42
1496444486.76,18784,21.31,74108.3,0.33,-33.83,-34.53,0,*45
1496444488.03,18785,21.31,74110.0,0.33,-33.77,-34.53,0,*4F
1496444489.27,18786,21.31,74108.3,0.33,-33.77,-34.47,0,*49
1496444490.46,18787,21.31,74106.3,0.31,-33.95,-34.47,0,*46
1496444491.68,18788,21.25,74102.0,0.31,-33.83,-34.53,0,*4B
1496444492.92,18789,21.31,74104.0,0.29,-33.89,-34.71,0,*49
1496444494.17,18790,21.31,74104.3,0.29,-34.01,-34.77,0,*40
1496444495.42,18791,21.31,74104.0,0.29,-34.01,-34.77,0,*41
1496444496.7,18792,21.31,74104.5,0.29,-33.73,-34.53,0,*46
1496444497.93,18793,21.31,74104.3,0.29,-33.61,-34.25,0,*45
1496444499.14,18794,21.31,74106.8,0.29,-33.67,-34.25,0,*44
1496444500.36,18795,21.31,74106.3,0.31,-33.43,-34.13,0,*4F
1496444501.61,18796,21.31,74104.5,0.29,-33.61,-34.19,0,*4F
1496444502.86,18797,21.31,74104.5,0.29,-33.31,-34.07,0,*44
1496444504.12,18798,21.31,74100.0,0.29,-33.49,-34.35,0,*45
1496444505.39,18799,21.31,74102.3,0.29,-33.73,-34.35,0,*4D
1496444506.65,18800,21.25,74100.8,0.29,-33.61,-34.35,0,*41
1496444507.89,18801,21.31,74104.0,0.29,-33.49,-34.25,0,*4B
1496444509.15,18802,21.31,74100.0,0.29,-33.27,-33.89,0,*41
1496444510.4,18803,21.25,74100.0,0.31,-32.85,-33.43,0,*46
1496444511.62,18804,21.31,74104.0,0.31,-33.03,-33.61,0,*4E
1496444512.89,18805,21.31,74104.5,0.33,-32.85,-33.43,0,*42
1496444514.16,18806,21.31,74106.5,0.33,-32.85,-33.43,0,*41
1496444515.4,18807,21.31,74102.0,0.33,-33.09,-33.67,0,*43
1496444516.65,18808,21.31,74100.0,0.33,-33.09,-33.67,0,*4C
1496444517.88,18809,21.31,74104.5,0.33,-33.03,-33.61,0,*41
1496444519.12,18810,21.25,74102.0,0.33,-33.03,-33.61,0,*49
1496444520.34,18811,21.25,74102.8,0.35,-32.85,-33.37,0,*42
1496444521.61,18812,21.25,74100.0,0.33,-32.85,-33.43,0,*44
1496444522.83,18813,21.25,74100.0,0.35,-32.85,-33.55,0,*44
1496444524.08,18814,21.25,74098.3,0.35,-32.85,-33.49,0,*4E
1496444525.27,18815,21.31,74100.0,0.35,-32.51,-33.21,0,*48
1496444526.5,18816,21.31,74098.5,0.37,-32.69,-33.37,0,*45
1496444527.72,18817,21.31,74098.5,0.37,-32.69,-33.37,0,*44
1496444528.98,18818,21.31,74098.5,0.37,-32.97,-33.61,0,*49
1496444530.23,18819,21.31,74096.5,0.37,-32.79,-33.37,0,*4B
1496444531.44,18820,21.31,74098.0,0.39,-32.91,-33.49,0,*40
1496444532.65,18821,21.31,74098.8,0.37,-33.21,-33.83,0,*43
1496444533.87,18822,21.25,74092.3,0.39,-33.27,-34.07,0,*43
1496444535.08,18823,21.31,74098.8,0.39,-33.31,-34.07,0,*45
1496444536.32,18824,21.31,74096.8,0.39,-33.31,-34.19,0,*4D
1496444537.55,18825,21.25,74094.5,0.37,-33.49,-34.25,0,*42
1496444538.79,18826,21.31,74096.8,0.39,-33.49,-34.35,0,*4E
1496444540.0,18827,21.31,74100.0,0.39,-33.49,-34.25,0,*4E
1496444541.19,18828,21.25,74096.8,0.39,-33.37,-34.25,0,*48
1496444542.37,18829,21.31,74102.5,0.39,-33.55,-34.25,0,*4D
1496444543.63,18830,21.25,74096.8,0.37,-33.61,-34.31,0,*49
1496444544.86,18831,21.25,74096.3,0.37,-33.61,-34.41,0,*4F
1496444546.11,18832,21.31,74100.8,0.37,-33.73,-34.47,0,*49
1496444547.34,18833,21.25,74102.5,0.37,-33.61,-34.41,0,*4D
1496444548.52,18834,21.25,74102.3,0.39,-33.67,-34.41,0,*42
1496444549.77,18835,21.25,74100.8,0.37,-33.73,-34.47,0,*4E
1496444551.02,18836,21.25,74102.0,0.37,-33.73,-34.59,0,*42
1496444552.27,18837,21.25,74100.8,0.35,-33.89,-34.65,0,*4B
1496444553.46,18838,21.25,74100.5,0.35,-33.95,-34.77,0,*4A
1496444554.68,18839,21.25,74102.8,0.35,-33.95,-34.83,0,*40
1496444555.92,18840,21.25,74104.8,0.33,-34.13,-34.95,0,*46
1496444557.17,18841,21.25,74106.0,0.35,-33.89,-34.65,0,*4A
1496444558.39,18842,21.25,74102.0,0.35,-33.89,-34.77,0,*4A
1496444559.6,18843,21.31,74104.5,0.33,-34.13,-34.89,0,*48
1496444560.87,18844,21.31,74108.0,0.33,-34.01,-34.83,0,*46
1496444562.09,18845,21.25,74104.3,0.31,-34.01,-34.71,0,*48
1496444563.35,18846,21.25,74104.5,0.33,-34.01,-34.83,0,*44
1496444564.62,18847,21.25,74106.8,0.33,-33.77,-34.53,0,*4E
1496444565.86,18848,21.25,74104.3,0.31,-33.77,-34.53,0,*43
1496444567.08,18849,21.25,74104.0,0.31,-33.67,-34.35,0,*43
1496444568.3,18850,21.31,74108.8,0.31,-33.83,-34.53,0,*41
1496444569.54,18851,21.25,74104.0,0.33,-33.83,-34.53,0,*42
1496444570.79,18852,21.31,74108.5,0.33,-33.83,-34.65,0,*44
1496444572.05,18853,21.25,74106.3,0.33,-33.77,-34.35,0,*4B
1496444573.27,18854,21.25,74104.0,0.31,-33.77,-34.47,0,*4B
1496444574.52,18855,21.25,74106.5,0.29,-33.83,-34.53,0,*4D
1496444575.74,18856,21.25,74108.5,0.31,-33.83,-34.65,0,*42
1496444576.98,18857,21.25,74106.0,0.29,-33.89,-34.71,0,*45
1496444578.2,18858,21.25,74104.0,0.31,-33.83,-34.53,0,*49
1496444579.44,18859,21.25,74108.0,0.29,-33.89,-34.71,0,*4B
1496444580.66,18860,21.25,74108.8,0.31,-34.01,-34.71,0,*4F
1496444581.88,18861,21.25,74110.5,0.31,-34.13,-34.83,0,*40
1496444583.1,18862,21.25,74108.8,0.29,-34.07,-34.77,0,*44
1496444584.34,18863,21.25,74110.0,0.29,-33.89,-34.71,0,*42
1496444585.59,18864,21.25,74106.8,0.29,-34.01,-34.77,0,*44
1496444586.84,18865,21.25,74108.0,0.31,-33.77,-34.53,0,*4C
1496444588.08,18866,21.25,74110.3,0.29,-33.89,-34.71,0,*47
1496444589.32,18867,21.25,74110.5,0.29,-33.89,-34.71,0,*46
1496444590.57,18868,21.25,74110.0,0.27,-33.73,-34.53,0,*42
1496444591.76,18869,21.25,74104.8,0.27,-33.67,-34.25,0,*47
1496444592.97,18870,21.25,74106.3,0.29,-33.67,-34.41,0,*43
1496444594.19,18871,21.25,74108.8,0.27,-33.73,-34.41,0,*49
1496444595.4,18872,21.25,74110.3,0.27,-33.43,-34.25,0,*4B
1496444596.64,18873,21.25,74108.5,0.27,-33.43,-34.19,0,*45
1496444597.85,18874,21.31,74110.3,0.29,-33.67,-34.41,0,*47
1496444599.07,18875,21.25,74104.0,0.27,-33.49,-34.25,0,*46
1496444600.28,18876,21.25,74106.0,0.27,-33.49,-34.25,0,*45
1496444601.5,18877,21.25,74106.8,0.27,-33.15,-34.01,0,*4B
1496444602.74,18878,21.25,74102.3,0.29,-33.15,-33.89,0,*4D
1496444603.96,18879,21.25,74106.5,0.29,-33.15,-33.67,0,*4C
1496444605.2,18880,21.25,74100.8,0.29,-33.09,-33.67,0,*47
1496444606.45,18881,21.25,74104.8,0.29,-33.09,-33.67,0,*46
1496444607.72,18882,21.25,74100.3,0.29,-33.27,-34.01,0,*4E
1496444608.99,18883,21.25,74100.3,0.29,-33.09,-33.73,0,*41
1496444610.24,18884,21.25,74104.3,0.29,-33.09,-33.67,0,*43
1496444611.43,18885,21.25,74102.5,0.31,-33.21,-33.95,0,*4C
1496444612.64,18886,21.25,74102.8,0.31,-33.09,-33.83,0,*42
1496444613.88,18887,21.25,74100.0,0.33,-32.91,-33.61,0,*4D
1496444615.07,18888,21.25,74102.8,0.35,-33.21,-33.95,0,*45
1496444616.33,18889,21.25,74104.3,0.33,-33.27,-34.01,0,*4E
1496444617.57,18890,21.25,74106.8,0.33,-33.27,-33.95,0,*4C
1496444618.76,18891,21.25,74106.3,0.35,-33.21,-33.95,0,*4D
1496444620.03,18892,21.25,74106.3,0.33,-33.27,-34.01,0,*44
1496444621.26,18893,21.25,74106.3,0.33,-33.43,-34.13,0,*44
1496444622.5,18894,21.25,74104.0,0.33,-33.55,-34.31,0,*44
1496444623.72,18895,21.25,74104.3,0.35,-33.31,-34.13,0,*41
1496444624.93,18896,21.25,74104.0,0.33,-33.37,-34.13,0,*42
1496444626.17,18897,21.25,74106.3,0.33,-33.27,-34.13,0,*42
1496444627.39,18898,21.25,74104.5,0.33,-33.37,-34.13,0,*4C
1496444628.66,18899,21.25,74102.3,0.33,-33.27,-34.01,0,*4F
1496444629.85,18900,21.25,74102.5,0.35,-33.21,-34.07,0,*48
1496444631.09,18901,21.25,74104.8,0.33,-33.21,-34.01,0,*49
1496444632.33,18902,21.25,74100.5,0.33,-33.27,-33.83,0,*41
1496444633.55,18903,21.25,74104.3,0.35,-33.31,-34.07,0,*4A
1496444634.78,18904,21.25,74102.8,0.33,-33.27,-33.95,0,*40
1496444636.0,18905,21.25,74100.3,0.35,-33.15,-33.89,0,*4B
1496444637.21,18906,21.25,74100.3,0.35,-33.15,-33.89,0,*48
1496444638.45,18907,21.25,74102.5,0.37,-33.15,-33.77,0,*4A
1496444639.66,18908,21.25,74098.5,0.37,-33.21,-33.95,0,*4E
1496444640.92,18909,21.25,74102.0,0.37,-32.97,-33.61,0,*48
1496444642.16,18910,21.25,74098.5,0.37,-33.03,-33.77,0,*4B
1496444643.37,18911,21.25,74100.0,0.37,-33.03,-33.55,0,*4A
1496444644.58,18912,21.25,74102.0,0.39,-33.15,-33.89,0,*41
1496444645.79,18913,21.25,74096.3,0.37,-33.15,-34.07,0,*4F
1496444647.03,18914,21.25,74096.8,0.37,-33.03,-33.77,0,*4F
1496444648.27,18915,21.25,74100.5,0.37,-33.03,-33.77,0,*4E
1496444649.51,18916,21.25,74096.5,0.37,-33.31,-34.13,0,*49
1496444650.73,18917,21.25,74096.0,0.37,-33.37,-34.07,0,*4B
1496444651.97,18918,21.25,74094.5,0.39,-33.27,-33.89,0,*4A
1496444653.18,18919,21.25,74096.3,0.39,-33.09,-33.83,0,*4D
1496444654.4,18920,21.25,74096.0,0.39,-33.15,-34.01,0,*47
1496444655.64,18921,21.25,74096.8,0.37,-33.31,-33.95,0,*44
1496444656.85,18922,21.25,74096.5,0.39,-33.15,-33.89,0,*42
1496444658.09,18923,21.25,74098.3,0.39,-33.27,-34.01,0,*45
1496444659.35,18924,21.25,74096.8,0.37,-33.61,-34.31,0,*4D
1496444660.56,18925,21.25,74092.8,0.39,-33.43,-34.07,0,*47
1496444661.77,18926,21.25,74096.5,0.39,-33.27,-33.83,0,*4D
1496444662.99,18927,21.25,74096.0,0.39,-33.49,-34.25,0,*4F
1496444664.17,18928,21.25,74098.3,0.39,-33.55,-34.25,0,*4D
1496444665.4,18929,21.25,74094.5,0.37,-33.61,-34.41,0,*47
1496444666.61,18930,21.25,74098.0,0.39,-33.55,-34.35,0,*45
1496444667.84,18931,21.25,74098.5,0.37,-33.61,-34.25,0,*4C
1496444669.08,18932,21.25,74096.3,0.39,-33.73,-34.35,0,*43
1496444670.33,18933,21.25,74096.3,0.39,-33.73,-34.53,0,*42
1496444671.58,18934,21.25,74096.8,0.37,-33.73,-34.47,0,*4E
1496444672.82,18935,21.25,74096.3,0.37,-33.73,-34.47,0,*4F
1496444674.09,18936,21.25,74098.0,0.37,-33.73,-34.31,0,*4D
1496444675.33,18937,21.25,74098.3,0.37,-33.77,-34.47,0,*49
1496444676.55,18938,21.25,74098.3,0.39,-33.89,-34.71,0,*4C
1496444677.78,18939,21.25,74096.8,0.37,-33.89,-34.59,0,*49
1496444679.02,18940,21.25,74096.5,0.37,-33.89,-34.47,0,*48
1496444680.27,18941,21.25,74096.5,0.37,-33.77,-34.47,0,*48
1496444681.48,18942,21.25,74098.5,0.37,-33.95,-34.77,0,*44
1496444682.72,18943,21.25,74102.5,0.37,-33.95,-34.65,0,*46
1496444683.97,18944,21.25,74096.3,0.37,-33.73,-34.47,0,*49
1496444685.19,18945,21.25,74100.3,0.35,-33.95,-34.65,0,*42
1496444686.41,18946,21.25,74100.8,0.35,-33.77,-34.59,0,*42
1496444687.64,18947,21.25,74102.8,0.35,-33.73,-34.47,0,*48
1496444688.89,18948,21.25,74096.3,0.37,-33.73,-34.59,0,*4A
1496444690.12,18949,21.25,74094.8,0.35,-33.73,-34.47,0,*46
1496444691.34,18950,21.25,74096.5,0.35,-33.73,-34.59,0,*41
1496444692.59,18951,21.25,74096.5,0.33,-33.83,-34.65,0,*46
1496444693.79,18952,21.25,74100.8,0.35,-34.07,-34.77,0,*4B
1496444695.03,18953,21.25,74098.0,0.33,-34.19,-34.89,0,*42
1496444696.3,18954,21.25,74096.5,0.33,-34.31,-34.95,0,*42
1496444697.57,18955,21.25,74100.3,0.33,-34.35,-35.07,0,*4D
1496444698.84,18956,21.25,74102.5,0.33,-34.19,-34.95,0,*4A
1496444700.06,18957,21.25,74096.0,0.35,-34.13,-34.83,0,*40
1496444701.32,18958,21.25,74102.8,0.33,-34.01,-34.83,0,*4A
1496444702.51,18959,21.25,74100.5,0.31,-34.13,-34.89,0,*40
1496444703.71,18960,21.25,74102.0,0.31,-34.13,-34.89,0,*4A
1496444704.95,18961,21.25,74098.5,0.31,-34.19,-34.95,0,*4C
1496444706.17,18962,21.25,74102.0,0.31,-34.35,-35.13,0,*4E
1496444707.42,18963,21.25,74100.3,0.29,-34.35,-35.13,0,*46
1496444708.67,18964,21.25,74100.3,0.31,-34.19,-35.07,0,*43
1496444709.91,18965,21.25,74102.5,0.31,-34.35,-35.07,0,*4C
1496444711.18,18966,21.25,74102.0,0.29,-34.19,-34.95,0,*42
1496444712.4,18967,21.25,74100.3,0.29,-34.25,-35.13,0,*43
1496444713.68,18968,21.25,74100.0,0.29,-34.35,-34.95,0,*42
1496444714.92,18969,21.25,74102.8,0.29,-34.35,-34.89,0,*4E
1496444716.16,18970,21.25,74102.3,0.29,-34.19,-34.89,0,*48
1496444717.41,18971,21.25,74102.8,0.29,-34.01,-34.77,0,*41
1496444718.66,18972,21.25,74102.0,0.29,-34.01,-34.59,0,*4E
1496444719.9,18973,21.25,74102.8,0.29,-33.83,-34.53,0,*48
1496444721.11,18974,21.25,74102.3,0.29,-33.83,-34.41,0,*4C
1496444722.36,18975,21.25,74100.3,0.29,-34.01,-34.41,0,*40
1496444723.6,18976,21.25,74100.0,0.29,-33.73,-34.41,0,*41
1496444724.84,18977,21.25,74100.5,0.29,-33.67,-34.35,0,*46
1496444726.08,18978,21.25,74102.0,0.29,-33.73,-34.41,0,*4F
1496444727.33,18979,21.25,74098.8,0.29,-33.73,-34.47,0,*48
1496444728.6,18980,21.25,74098.8,0.29,-33.89,-34.53,0,*4E
1496444729.84,18981,21.25,74100.5,0.29,-33.89,-34.71,0,*4F
1496444731.09,18982,21.25,74098.5,0.29,-34.01,-34.77,0,*4D
1496444732.33,18983,21.25,74100.5,0.29,-34.25,-34.95,0,*46
1496444733.56,18984,21.25,74100.5,0.27,-34.01,-34.71,0,*43
1496444734.77,18985,21.25,74100.3,0.27,-33.73,-34.41,0,*43
1496444736.0,18986,21.25,74100.3,0.27,-33.67,-34.53,0,*46
1496444737.24,18987,21.25,74102.3,0.27,-33.73,-34.35,0,*42
1496444738.5,18988,21.25,74100.8,0.27,-33.73,-34.53,0,*4D
1496444739.71,18989,21.25,74102.0,0.29,-33.67,-34.41,0,*44
1496444740.97,18990,21.25,74102.3,0.29,-33.61,-34.19,0,*47
1496444742.18,18991,21.25,74102.0,0.31,-33.43,-34.13,0,*45
1496444743.42,18992,21.25,74098.5,0.29,-33.67,-34.35,0,*4D
1496444744.66,18993,21.25,74102.3,0.29,-33.73,-34.41,0,*4A
1496444745.92,18994,21.25,74098.3,0.29,-33.61,-34.35,0,*4D
1496444747.2,18995,21.19,74096.0,0.29,-33.73,-34.53,0,*4F
1496444748.44,18996,21.19,74096.5,0.29,-33.73,-34.41,0,*4F
1496444749.69,18997,21.25,74098.8,0.31,-33.43,-34.01,0,*40
1496444750.9,18998,21.19,74098.5,0.31,-33.27,-33.95,0,*47
1496444752.16,18999,21.25,74100.5,0.29,-33.61,-34.19,0,*4E
1496444753.43,19000,21.25,74102.5,0.29,-33.73,-34.53,0,*4B
1496444754.68,19001,21.25,74100.3,0.29,-33.83,-34.53,0,*45
1496444755.88,19002,21.25,74100.0,0.31,-33.67,-34.47,0,*40
1496444757.12,19003,21.25,74100.3,0.29,-33.67,-34.35,0,*4D
1496444758.38,19004,21.25,74100.0,0.29,-33.61,-34.19,0,*42
1496444759.61,19005,21.19,74098.0,0.29,-33.67,-34.35,0,*4B
1496444760.86,19006,21.25,74100.3,0.29,-33.83,-34.53,0,*42
1496444762.11,19007,21.25,74102.5,0.29,-33.83,-34.53,0,*43
1496444763.36,19008,21.25,74098.3,0.29,-33.83,-34.53,0,*4C
1496444764.57,19009,21.19,74096.8,0.27,-33.73,-34.41,0,*4F
1496444765.79,19010,21.25,74100.5,0.31,-33.67,-34.35,0,*46
1496444767.03,19011,21.25,74100.8,0.29,-33.73,-34.41,0,*48
1496444768.31,19012,21.25,74102.0,0.29,-33.73,-34.53,0,*48
1496444769.55,19013,21.25,74100.5,0.31,-33.77,-34.53,0,*44
1496444770.76,19014,21.19,74100.3,0.29,-33.67,-34.25,0,*4A
1496444772.0,19015,21.19,74102.8,0.29,-33.73,-34.41,0,*4C
1496444773.24,19016,21.25,74102.3,0.29,-33.67,-34.35,0,*49
1496444774.48,19017,21.25,74106.0,0.29,-33.67,-34.35,0,*48
1496444775.73,19018,21.25,74106.0,0.29,-33.49,-34.07,0,*4A
1496444776.99,19019,21.25,74104.0,0.29,-33.49,-34.19,0,*44
1496444778.26,19020,21.25,74104.0,0.29,-33.49,-34.35,0,*40
1496444779.47,19021,21.25,74104.3,0.31,-33.27,-33.95,0,*4D
1496444780.74,19022,21.25,74100.5,0.29,-33.09,-33.73,0,*43
1496444781.98,19023,21.25,74100.3,0.29,-33.15,-33.73,0,*4F
1496444783.2,19024,21.25,74098.5,0.31,-32.91,-33.43,0,*4F
1496444784.43,19025,21.19,74096.8,0.29,-32.91,-33.61,0,*47
1496444785.65,19026,21.19,74092.3,0.31,-32.85,-33.55,0,*4F
1496444786.87,19027,21.25,74094.5,0.31,-32.91,-33.43,0,*4C
1496444788.09,19028,21.25,74094.3,0.31,-32.85,-33.37,0,*45
1496444789.34,19029,21.25,74094.3,0.33,-32.75,-33.37,0,*49
1496444790.57,19030,21.25,74094.5,0.35,-32.69,-33.31,0,*4C
1496444791.78,19031,21.19,74094.0,0.33,-32.91,-33.37,0,*4A
1496444793.0,19032,21.25,74096.3,0.35,-33.15,-33.61,0,*41
1496444794.21,19033,21.19,74096.3,0.35,-33.15,-33.77,0,*47
1496444795.43,19034,21.19,74096.5,0.35,-33.15,-33.89,0,*41
1496444796.63,19035,21.25,74098.5,0.39,-33.15,-33.61,0,*4A
1496444797.87,19036,21.25,74096.5,0.37,-33.31,-33.95,0,*4A
1496444799.08,19037,21.25,74096.0,0.37,-33.21,-33.95,0,*4A
1496444800.32,19038,21.19,74094.5,0.39,-32.97,-33.49,0,*46
1496444801.56,19039,21.19,74096.5,0.37,-33.03,-33.77,0,*48
1496444802.8,19040,21.25,74098.0,0.37,-33.31,-33.95,0,*4B
1496444804.04,19041,21.19,74092.0,0.37,-33.21,-33.89,0,*46
1496444805.25,19042,21.19,74094.0,0.39,-33.43,-34.07,0,*4E
1496444806.49,19043,21.19,74094.5,0.39,-33.27,-33.89,0,*4C
1496444807.73,19044,21.19,74092.8,0.37,-33.31,-33.95,0,*4F
1496444808.92,19045,21.19,74092.3,0.39,-33.55,-34.07,0,*4E
1496444810.16,19046,21.19,74094.8,0.39,-33.49,-34.19,0,*4F
1496444811.4,19047,21.19,74096.5,0.37,-33.49,-34.13,0,*4A
1496444812.61,19048,21.19,74096.5,0.39,-33.43,-34.07,0,*44
1496444813.82,19049,21.19,74094.5,0.39,-33.55,-34.19,0,*4D
1496444815.03,19050,21.19,74094.5,0.39,-33.89,-34.41,0,*49
1496444816.24,19051,21.19,74096.0,0.39,-33.89,-34.47,0,*4E
1496444817.49,19052,21.19,74098.5,0.37,-33.77,-34.47,0,*42
1496444818.7,19053,21.19,74096.8,0.39,-33.67,-34.35,0,*49
1496444819.89,19054,21.19,74096.0,0.39,-33.67,-34.25,0,*4F
1496444821.13,19055,21.19,74094.8,0.37,-33.95,-34.53,0,*4C
1496444822.38,19056,21.19,74094.3,0.37,-33.73,-34.47,0,*42
1496444823.64,19057,21.19,74092.8,0.37,-33.89,-34.65,0,*46
1496444824.86,19058,21.19,74094.3,0.37,-34.13,-34.77,0,*4E
1496444826.08,19059,21.19,74092.8,0.39,-34.19,-34.77,0,*4B
1496444827.3,19060,21.19,74094.3,0.37,-34.13,-34.89,0,*44
1496444828.54,19061,21.19,74092.3,0.37,-34.13,-34.83,0,*4F
1496444829.75,19062,21.19,74098.0,0.37,-34.25,-34.89,0,*43
1496444830.97,19063,21.19,74094.0,0.37,-34.07,-34.77,0,*43
1496444832.16,19064,21.19,74092.8,0.35,-33.95,-34.59,0,*46
1496444833.35,19065,21.19,74094.8,0.35,-33.95,-34.59,0,*47
1496444834.57,19066,21.25,74100.3,0.35,-33.77,-34.41,0,*41
1496444835.76,19067,21.19,74096.5,0.35,-33.95,-34.59,0,*45
1496444836.98,19068,21.19,74096.3,0.35,-33.77,-34.47,0,*49
1496444838.22,19069,21.19,74098.8,0.37,-33.77,-34.59,0,*45
1496444839.42,19070,21.19,74094.0,0.35,-34.13,-34.77,0,*46
1496444840.64,19071,21.19,74098.5,0.35,-34.41,-35.07,0,*46
1496444841.88,19072,21.19,74096.8,0.33,-34.31,-34.89,0,*43
1496444843.12,19073,21.19,74098.8,0.33,-34.31,-34.89,0,*42
1496444844.32,19074,21.19,74098.8,0.35,-34.13,-34.77,0,*42
1496444845.55,19075,21.19,74098.8,0.35,-34.07,-34.65,0,*45
1496444846.77,19076,21.19,74092.8,0.35,-34.19,-34.77,0,*4A
1496444848.01,19077,21.19,74096.3,0.33,-34.13,-34.83,0,*4C
1496444849.2,19078,21.19,74096.5,0.35,-34.25,-34.77,0,*4B
1496444850.47,19079,21.19,74098.8,0.33,-34.31,-34.83,0,*42
1496444851.73,19080,21.19,74096.0,0.33,-34.19,-34.83,0,*4E
1496444852.97,19081,21.19,74098.8,0.33,-34.13,-34.83,0,*45
1496444854.21,19082,21.19,74098.5,0.33,-34.19,-34.71,0,*41
1496444855.48,19083,21.19,74098.3,0.33,-34.19,-34.83,0,*4D
1496444856.67,19084,21.19,74100.3,0.31,-34.13,-34.71,0,*4F
1496444857.9,19085,21.19,74096.0,0.31,-34.13,-34.65,0,*4B
1496444859.15,19086,21.19,74098.0,0.31,-34.01,-34.65,0,*4B
1496444860.36,19087,21.19,74096.3,0.31,-33.95,-34.53,0,*45
1496444861.59,19088,21.19,74100.3,0.29,-34.07,-34.71,0,*4F
1496444862.81,19089,21.19,74098.8,0.31,-33.83,-34.53,0,*4C
1496444864.03,19090,21.19,74100.3,0.31,-34.01,-34.71,0,*49
1496444865.25,19091,21.19,74096.0,0.31,-33.83,-34.53,0,*45
1496444866.48,19092,21.19,74096.5,0.31,-34.13,-34.65,0,*4D
1496444867.71,19093,21.19,74096.8,0.31,-33.77,-34.35,0,*4C
1496444868.93,19094,21.19,74098.8,0.31,-33.67,-34.35,0,*4A
1496444870.17,19095,21.19,74100.3,0.29,-33.89,-34.59,0,*48
1496444871.44,19096,21.19,74096.3,0.29,-34.01,-34.65,0,*43
1496444872.66,19097,21.19,74098.5,0.31,-34.01,-34.71,0,*4E
1496444873.91,19098,21.19,74096.5,0.31,-34.01,-34.83,0,*4C
1496444875.1,19099,21.19,74096.3,0.31,-34.13,-34.71,0,*43
1496444876.35,19100,21.19,74096.5,0.29,-34.01,-34.59,0,*42
1496444877.6,19101,21.19,74096.0,0.31,-34.01,-34.65,0,*45
1496444878.85,19102,21.19,74098.8,0.29,-34.01,-34.71,0,*4A
1496444880.07,19103,21.19,74098.0,0.29,-34.07,-34.77,0,*4B
1496444881.29,19104,21.19,74100.8,0.29,-34.25,-34.89,0,*4D
1496444882.53,19105,21.19,74100.8,0.31,-34.31,-34.95,0,*4D
1496444883.81,19106,21.19,74098.3,0.29,-34.35,-34.95,0,*43
1496444885.08,19107,21.19,74102.0,0.29,-34.35,-34.95,0,*42
1496444886.35,19108,21.19,74100.3,0.29,-34.35,-34.95,0,*4D
1496444887.57,19109,21.19,74100.8,0.29,-34.25,-34.89,0,*40
1496444888.81,19110,21.19,74102.8,0.29,-34.41,-34.95,0,*47
1496444890.03,19111,21.19,74102.8,0.29,-34.41,-35.13,0,*49
1496444891.26,19112,21.19,74104.3,0.29,-34.41,-35.01,0,*49
1496444892.51,19113,21.19,74104.0,0.27,-34.35,-34.95,0,*49
1496444893.73,19114,21.19,74100.0,0.27,-34.35,-34.89,0,*43
1496444894.98,19115,21.19,74100.0,0.23,-34.31,-34.95,0,*4F
1496444896.2,19116,21.19,74102.3,0.27,-34.35,-34.89,0,*41
1496444897.39,19117,21.19,74100.3,0.27,-34.41,-34.89,0,*43
1496444898.61,19118,21.19,74102.8,0.23,-34.41,-34.95,0,*45
1496444899.83,19119,21.19,74104.0,0.23,-34.25,-34.83,0,*41
1496444901.04,19120,21.19,74100.3,0.23,-34.25,-34.83,0,*4B